Regional Weather Roundup
Issued by NWS

Home | Current Version | Previous Version | Graphics & Text | Print | Product List | Glossary On
Versions: 1 2 3 4 5 6 7 8 9 10 11 12 13 14 15 16 17 18 19 20 21 22 23 24 25 26 27 28 29 30 31 32 33 34 35 36 37 38 39 40 41 42 43 44 45 46 47 48 49 50
000
ASUS43 KIND 271109
RWRIN

WEATHER ROUNDUP FOR INDIANA
NATIONAL WEATHER SERVICE INDIANAPOLIS IN
700 AM EDT THU JUL 27 2017

NOTE: "FAIR" INDICATES FEW OR NO CLOUDS BELOW 12,000 FEET WITH NO
SIGNIFICANT WEATHER AND/OR OBSTRUCTIONS TO VISIBILITY.

* - STATION DOES NOT REPORT WEATHER SUCH AS PRECIPITATION OR FOG.

+ - STATION NOT QUALITY CONTROLLED BY THE NATIONAL WEATHER SERVICE.
    USE DATA WITH CAUTION...ESPECIALLY DEWPOINT AND RELATIVE
    HUMIDITY OBSERVATIONS.

INZ001>003-010>013-019-020-271200-
NORTHWEST INDIANA

CITY           SKY/WX    TMP DP  RH WIND       PRES   REMARKS
GARY /AIRPORT/ CLOUDY    73  73 100 W5        29.93S FOG
KNOX *+        CLOUDY    70  70 100 CALM      29.93S VSB 1/2
LA PORTE +     CLOUDY    71  70  97 CALM      29.94S FOG
MICHIGAN CITY+ CLOUDY    72  72 100 CALM      29.93F
MONTICELLO +   CLOUDY    71  69  95 SW5       29.93S
RENSSELAER +   CLOUDY    70  68  94 SW5       29.94S
VALPARAISO     CLOUDY    73  72  96 W5        29.93S

$$

LMZ046-743>745-271200-
SOUTHERN LAKE MICHIGAN

STATION/POSITION TIME  TEMP    WIND        PRES    WAVE
                       AIR SEA DIR/SP/G            HT
                 (UTC) (F)     (DEG/KT/KT) (MB)    (FT)
BURNS HARBOR     1040   73     240/  3/  4 1013.5S
MICHIGAN CITY    1040   72     240/  3/  3   N/A
5NW MICH CITY    1100   73 74  290/  4/  6   N/A     1

$$

INZ004-005-014>016-021>024-271200-
NORTH CENTRAL INDIANA

CITY           SKY/WX    TMP DP  RH WIND       PRES   REMARKS
ELKHART        CLOUDY    72  66  83 CALM      29.93
GOSHEN         CLOUDY    71  66  84 S3        29.93S
LOGANSPORT +   CLOUDY    70  70 100 CALM      29.94S FOG
PERU/GRISSOM   CLOUDY    71  71 100 SE3       29.93S
ROCHESTER +    PTCLDY    72  72 100 S5        29.94S FOG
SOUTH BEND     CLOUDY    72  69  90 CALM      29.94R
WARSAW +       CLOUDY    70  70 100 CALM      29.93S

$$

INZ006>009-017-018-025>027-271200-
NORTHEAST INDIANA

CITY           SKY/WX    TMP DP  RH WIND       PRES   REMARKS
AUBURN +       CLOUDY    70  64  83 CALM      29.95S
FORT WAYNE     CLOUDY    70  68  93 SW3       29.94F
HUNTINGTON +   CLOUDY    69  68  96 CALM      29.94S
KENDALLVILLE + CLOUDY    69  68  95 CALM      29.94F

$$

INZ028-029-035-036-043>045-051>053-271200-
WEST CENTRAL INDIANA

CITY           SKY/WX    TMP DP  RH WIND       PRES   REMARKS
GREENCASTLE +  CLOUDY    72  72 100 CALM      29.95S
LAFAYETTE      CLOUDY    71  71 100 CALM      29.94R
TERRE HAUTE    LGT RAIN  73  71  93 SW10      29.97R

$$

INZ030>032-037>040-046>048-054>057-064-065-271200-
CENTRAL INDIANA

CITY           SKY/WX    TMP DP  RH WIND       PRES   REMARKS
CP ATTERBURY + CLOUDY    73  70  88 CALM      29.96S
COLUMBUS       MOCLDY    73  72  94 CALM      29.97
FRANKFORT +    CLOUDY    73  72  96 W3        29.97R FOG
INDIANAPOLIS   CLOUDY    74  72  93 W8        29.95S
-EAGLE CREEK   LGT RAIN  75  72  90 SW3       29.95R
KOKOMO +       CLOUDY    71  70  96 SE6       29.94F FOG
MARION +       CLOUDY    70  70 100 CALM      29.96S FOG
MT COMFORT *+  CLOUDY    72  70  94 CALM      29.96S
SHELBYVILLE    LGT RAIN  74  70  87 S3        29.95S
ZIONSVILLE +   CLOUDY    70  70  99 S3        29.96R FOG

$$

INZ033-034-041-042-049-050-058-059-271200-
EAST CENTRAL INDIANA

CITY           SKY/WX    TMP DP  RH WIND       PRES   REMARKS
MUNCIE         CLOUDY    74  70  87 SE3       29.96S
RICHMOND +     CLOUDY    68  68 100 NW3       29.99S

$$

INZ060-061-067>069-081>083-085>088-271200-
SOUTHWEST INDIANA

CITY           SKY/WX    TMP DP  RH WIND       PRES   REMARKS
EVANSVILLE     CLOUDY    74  71  91 CALM      29.97R
HUNTINGBURG *+ CLOUDY    74  73  97 CALM      29.97S FOG

$$

INZ062-063-066-070>080-084-089>092-271200-
SOUTH CENTRAL AND SOUTHEAST INDIANA

CITY           SKY/WX    TMP DP  RH WIND       PRES   REMARKS
BEDFORD +      CLOUDY    73  70  88 CALM      29.96S
BLOOMINGTON    CLOUDY    74  71  91 SW5       29.97R
MADISON *+     MOCLDY    73  72  94 CALM      30.00S
NORTH VERNON + DRIZZLE   72  70  94 SW3       29.97S
SEYMOUR +      CLOUDY    73  73 100 S3        29.96S FOG

$$




USA.gov is the U.S. government's official web portal to all federal, state and local government web resources and services.